Seretse Khama, Botswana

3:38 PM CAT on January 20, 2018 (GMT +0200)
Seretse Khama

Weather History for FBSK - April, 2013

Change the Weather History Date:

Saturday, April 13, 2013

  Actual Average Record
Temperature  
Mean Temperature 68 °F -  
Max Temperature 73 °F 77 °F 89 °F (2009)
Min Temperature 60 °F 51 °F 50 °F (1997)
Cooling Degree Days 2    
Growing Degree Days 18 (Base 50)    
Moisture  
Dew Point 54 °F    
Average Humidity 67    
Maximum Humidity 88    
Minimum Humidity 53    
Precipitation  
Precipitation 0.00 in - - ()
Sea Level Pressure  
Sea Level Pressure 30.25 in    
Wind  
Wind Speed 7 mph ()    
Max Wind Speed 13 mph    
Max Gust Speed -    
Visibility 6.2 miles    
Events      
Averages and records for this station are not official NWS values.
T = Trace of Precipitation, MM = Missing Value Source: Averaged Metar Reports

Daily Weather History Graph

Daily Weather History Graph

Search for Another Location

Airport or City:

Trip Planner

Search our weather history database for the weather conditions in past years. The results will help you decide how hot, cold, wet, or windy it might be!

Date:

Astronomy

Apr. 13, 2013 Rise Set
Actual Time 6:29 AM CAT 6:03 PM CAT
Civil Twilight 6:06 AM CAT 6:26 PM CAT
Nautical Twilight 5:40 AM CAT 6:52 PM CAT
Astronomical Twilight 5:13 AM CAT 7:19 PM CAT
Moon 9:02 AM CAT (4/13) 8:11 PM CAT (4/13)
Length of Visible Light 12h 19m
Length of Day
11h 33m
Waxing Crescent, 9% of the Moon is Illuminated
Apr 13
Waxing Crescent
Apr 18
First Quarter
Apr 25
Full
May 2
Last Quarter
May 10
New

Hourly Weather History & Observations

Time (CAT) Temp. Dew Point Humidity Pressure Visibility Wind Dir Wind Speed Gust Speed Precip Events Conditions
12:00 AM 66.2 °F 51.8 °F 60% 30.21 in - NE 10.4 mph - N/A   Clear
1:00 AM 66.2 °F 51.8 °F 60% 30.21 in - NE 9.2 mph - N/A   Clear
2:00 AM 64.4 °F 51.8 °F 64% 30.21 in - ENE 8.1 mph - N/A   Clear
3:00 AM 64.4 °F 51.8 °F 64% 30.27 in - Variable 2.3 mph - N/A   Clear
4:00 AM 64.4 °F 51.8 °F 64% 30.27 in 6.2 mi SSE 9.2 mph - N/A   Partly Cloudy
5:00 AM 64.4 °F 51.8 °F 64% 30.24 in 6.2 mi ESE 10.4 mph - N/A   Partly Cloudy
6:00 AM 62.6 °F 53.6 °F 72% 30.24 in 6.2 mi ENE 12.7 mph - N/A   Partly Cloudy
7:00 AM 62.6 °F 55.4 °F 77% 30.30 in 6.2 mi NNE 9.2 mph - N/A   Mostly Cloudy
8:00 AM 62.6 °F 55.4 °F 77% 30.33 in 6.2 mi North 8.1 mph - N/A   Mostly Cloudy
9:00 AM 62.6 °F 55.4 °F 77% 30.36 in 6.2 mi North 10.4 mph - N/A   Scattered Clouds
10:00 AM 64.4 °F 57.2 °F 77% 30.39 in 6.2 mi WNW 5.8 mph - N/A   Overcast
11:00 AM 62.6 °F 59.0 °F 88% 30.33 in 6.2 mi NE 9.2 mph - N/A   Scattered Clouds
12:00 PM 64.4 °F 57.2 °F 77% 30.12 in 6.2 mi NNE 10.4 mph - N/A   Overcast
2:00 PM 69.8 °F 55.4 °F 60% 30.24 in 6.2 mi NNW 5.8 mph - N/A   Overcast
3:00 PM 71.6 °F 55.4 °F 57% 30.21 in 6.2 mi WNW 5.8 mph - N/A   Overcast
4:00 PM 73.4 °F 55.4 °F 53% 30.21 in 6.2 mi North 4.6 mph - N/A   Scattered Clouds
5:00 PM 73.4 °F 55.4 °F 53% 30.21 in 6.2 mi East 4.6 mph - N/A   Partly Cloudy
6:00 PM 71.6 °F 55.4 °F 57% 30.21 in 6.2 mi SSE 5.8 mph - N/A   Partly Cloudy
7:00 PM 68.0 °F 55.4 °F 64% 30.21 in - East 5.8 mph - N/A   Clear
8:00 PM 66.2 °F 53.6 °F 64% 30.21 in - East 6.9 mph - N/A   Clear
9:00 PM 62.6 °F 53.6 °F 72% 30.24 in - ENE 5.8 mph - N/A   Clear
10:00 PM 62.6 °F 53.6 °F 72% 30.24 in - East 4.6 mph - N/A   Clear
11:00 PM 60.8 °F 51.8 °F 72% 30.24 in - ESE 5.8 mph - N/A   Clear